Tracking 19854 objects as of 22-Sep-2019
HD Live streaming from Space Station
objects crossing your sky now

COSMOS 1823 DEB

Track COSMOS 1823 DEB now!
10-day predictions


NORAD ID: 39833
Int'l Code: 1987-020FH
Perigee: 1,422.3 km
Apogee: 1,458.4 km
Inclination: 73.8 °
Period: 114.5 minutes
Semi major axis: 7811 km
RCS: 0.0132 m2 (small)
Launch date: February 20, 1987
Source: Commonwealth of Independent States (former USSR) (CIS)
Launch site: PLESETSK MISSILE AND SPACE COMPLEX (PKMTR)

Note: This is SATELLITE DEBRIS
aabbcc
Your satellite tracking list
Your tracking list is empty




NASA's NSSDC Master Catalog

Two Line Element Set (TLE):
1 39833U 87020FH  19263.59279329 +.00000164 +00000-0 +10776-2 0  9994
2 39833 073.7770 232.1184 0023124 014.9262 345.2469 12.57510987243126
Source of the keplerian elements: AFSPC